When you browse on this site, cookies collect data to enhance your experience and personalize the content and advertising you see.
Visit our Privacy Policy to learn more. By continuing to use the site, you agree to this use of cookies and data.
  • In Österreich
  • Länderverzeichnis
  • Für 7 Tage
  • Wassertemperatur
  • Satellitenkarten
  • Wetterkarte
  • News
  • Widgets
  • user-avatar
    Anmelden

    Stündliche Wetter Garmisch-Partenkirchen

    Heute, 10 Dezember, Montag

    Zeit Temperatur Niederschläge Wind Luftdruck Luftfeuchtigkeit
    00:00 0°C° 1.7 mm 4 m/S 671 mmHg 94%
    01:00 -1°C° 0 mm 4 m/S 671 mmHg 93%
    02:00 -1°C° 1.2 mm 4 m/S 672 mmHg 93%
    03:00 -1°C° 1.2 mm 4 m/S 672 mmHg 93%
    04:00 -1°C° 1.2 mm 4 m/S 672 mmHg 92%
    05:00 -2°C° 0.6 mm 4 m/S 673 mmHg 92%
    06:00 -2°C° 0.6 mm 4 m/S 673 mmHg 92%
    07:00 -3°C° 0 mm 4 m/S 674 mmHg 92%
    08:00 -3°C° 0.5 mm 4 m/S 674 mmHg 92%
    09:00 -3°C° 0.5 mm 4 m/S 674 mmHg 92%
    10:00 -3°C° 0.5 mm 4 m/S 674 mmHg 91%
    11:00 -2°C° 0.8 mm 4 m/S 675 mmHg 91%
    12:00 -2°C° 0.8 mm 4 m/S 675 mmHg 90%
    13:00 -3°C° 0 mm 4 m/S 675 mmHg 92%
    14:00 -2°C° 0.8 mm 3 m/S 675 mmHg 92%
    15:00 -2°C° 0.8 mm 3 m/S 675 mmHg 92%
    16:00 -2°C° 0.8 mm 3 m/S 675 mmHg 92%
    17:00 -2°C° 0.8 mm 3 m/S 675 mmHg 93%
    18:00 -2°C° 0.8 mm 3 m/S 675 mmHg 93%
    19:00 -2°C° 0.8 mm 3 m/S 675 mmHg 94%
    20:00 -2°C° 1.1 mm 3 m/S 675 mmHg 94%
    21:00 -3°C° 1.1 mm 4 m/S 675 mmHg 94%
    22:00 -4°C° 1.1 mm 4 m/S 675 mmHg 95%
    23:00 -4°C° 1.4 mm 4 m/S 675 mmHg 95%

    Morgen, 11 Dezember, Dienstag

    Zeit Temperatur Niederschläge Wind Luftdruck Luftfeuchtigkeit
    00:00 -4°C° 1.4 mm 3 m/S 675 mmHg 95%
    01:00 -4°C° 1.4 mm 3 m/S 675 mmHg 96%
    02:00 -5°C° 0.6 mm 3 m/S 675 mmHg 96%
    03:00 -5°C° 0.6 mm 3 m/S 675 mmHg 96%
    04:00 -5°C° 0.6 mm 3 m/S 675 mmHg 96%
    05:00 -5°C° 0.4 mm 3 m/S 675 mmHg 96%
    06:00 -6°C° 0.4 mm 3 m/S 676 mmHg 96%
    07:00 -6°C° 0.4 mm 3 m/S 676 mmHg 95%
    08:00 -6°C° 0.4 mm 3 m/S 676 mmHg 94%
    09:00 -5°C° 0.4 mm 3 m/S 676 mmHg 93%
    10:00 -5°C° 0.4 mm 3 m/S 676 mmHg 92%
    11:00 -5°C° 0.2 mm 3 m/S 676 mmHg 90%
    12:00 -4°C° 0.2 mm 3 m/S 676 mmHg 88%
    13:00 -4°C° 0.2 mm 3 m/S 676 mmHg 87%
    14:00 -5°C° 0.2 mm 3 m/S 676 mmHg 88%
    15:00 -4°C° 0.2 mm 2 m/S 676 mmHg 90%
    16:00 -5°C° 0.2 mm 2 m/S 676 mmHg 92%
    17:00 -5°C° 0.1 mm 2 m/S 676 mmHg 92%
    18:00 -6°C° 0.1 mm 2 m/S 676 mmHg 92%
    19:00 -7°C° 0.1 mm 2 m/S 676 mmHg 93%
    20:00 -7°C° 0 mm 2 m/S 676 mmHg 92%
    21:00 -8°C° 0 mm 2 m/S 676 mmHg 91%
    22:00 -9°C° 0 mm 2 m/S 676 mmHg 89%
    23:00 -9°C° 0 mm 2 m/S 676 mmHg 89%

    übermorgen, 12 Dezember, Mittwoch

    Zeit Temperatur Niederschläge Wind Luftdruck Luftfeuchtigkeit
    00:00 -9°C° 0 mm 2 m/S 676 mmHg 88%
    01:00 -10°C° 0 mm 2 m/S 675 mmHg 88%
    02:00 -10°C° 0 mm 2 m/S 675 mmHg 88%
    03:00 -10°C° 0 mm 2 m/S 675 mmHg 88%
    04:00 -10°C° 0 mm 2 m/S 675 mmHg 88%
    05:00 -10°C° 0 mm 2 m/S 675 mmHg 88%
    06:00 -12°C° 0 mm 2 m/S 675 mmHg 88%
    07:00 -12°C° 0 mm 2 m/S 675 mmHg 89%
    08:00 -8°C° 0 mm 1 m/S 675 mmHg 88%
    09:00 -7°C° 0 mm 1 m/S 675 mmHg 87%
    10:00 -4°C° 0 mm 1 m/S 676 mmHg 86%
    11:00 -3°C° 0 mm 1 m/S 675 mmHg 84%
    12:00 -2°C° 0 mm 1 m/S 675 mmHg 81%
    13:00 -1°C° 0 mm 1 m/S 675 mmHg 79%
    14:00 -2°C° 0 mm 1 m/S 674 mmHg 84%
    15:00 -3°C° 0 mm 1 m/S 674 mmHg 89%
    16:00 -4°C° 0 mm 1 m/S 673 mmHg 94%
    17:00 -6°C° 0 mm 1 m/S 673 mmHg 93%
    18:00 -7°C° 0 mm 1 m/S 673 mmHg 93%
    19:00 -8°C° 0 mm 1 m/S 674 mmHg 93%
    20:00 -8°C° 0 mm 1 m/S 673 mmHg 91%
    21:00 -8°C° 0 mm 1 m/S 673 mmHg 89%
    22:00 -9°C° 0 mm 1 m/S 673 mmHg 87%
    23:00 -9°C° 0 mm 1 m/S 673 mmHg 85%

    13 Dezember, Donnerstag

    Zeit Temperatur Niederschläge Wind Luftdruck Luftfeuchtigkeit
    00:00 -10°C° 0 mm 1 m/S 672 mmHg 84%
    01:00 -10°C° 0 mm 1 m/S 672 mmHg 82%
    02:00 -10°C° 0 mm 1 m/S 672 mmHg 81%
    03:00 -10°C° 0 mm 1 m/S 672 mmHg 81%
    04:00 -13°C° 0 mm 2 m/S 671 mmHg 80%
    05:00 -13°C° 0 mm 2 m/S 671 mmHg 80%
    06:00 -13°C° 0 mm 2 m/S 671 mmHg 80%
    07:00 -13°C° 0 mm 2 m/S 671 mmHg 80%
    08:00 -12°C° 0 mm 2 m/S 671 mmHg 80%
    09:00 -9°C° 0 mm 2 m/S 671 mmHg 80%
    10:00 -8°C° 0 mm 2 m/S 671 mmHg 80%
    11:00 -6°C° 0 mm 2 m/S 671 mmHg 79%
    12:00 -5°C° 0 mm 2 m/S 671 mmHg 78%
    13:00 -4°C° 0 mm 2 m/S 671 mmHg 77%
    14:00 -5°C° 0 mm 2 m/S 671 mmHg 81%
    15:00 -4°C° 0 mm 1 m/S 670 mmHg 85%
    16:00 -6°C° 0 mm 1 m/S 670 mmHg 89%
    17:00 -8°C° 0 mm 2 m/S 670 mmHg 87%
    18:00 -9°C° 0 mm 2 m/S 671 mmHg 85%
    19:00 -10°C° 0 mm 2 m/S 671 mmHg 84%
    20:00 -10°C° 0 mm 2 m/S 671 mmHg 82%
    21:00 -10°C° 0 mm 2 m/S 671 mmHg 80%
    22:00 -10°C° 0 mm 2 m/S 672 mmHg 78%
    23:00 -10°C° 0 mm 2 m/S 672 mmHg 76%

    14 Dezember, Freitag

    Zeit Temperatur Niederschläge Wind Luftdruck Luftfeuchtigkeit
    00:00 -10°C° 0 mm 2 m/S 672 mmHg 75%
    01:00 -10°C° 0 mm 2 m/S 672 mmHg 74%
    02:00 -10°C° 0 mm 2 m/S 672 mmHg 73%
    03:00 -10°C° 0 mm 2 m/S 672 mmHg 73%
    04:00 -10°C° 0 mm 2 m/S 672 mmHg 72%
    05:00 -10°C° 0 mm 2 m/S 672 mmHg 72%
    06:00 -10°C° 0 mm 2 m/S 672 mmHg 71%
    07:00 -10°C° 0 mm 2 m/S 672 mmHg 71%
    08:00 -9°C° 0 mm 2 m/S 673 mmHg 72%
    09:00 -6°C° 0 mm 1 m/S 673 mmHg 73%
    10:00 -4°C° 0 mm 1 m/S 674 mmHg 74%
    11:00 -2°C° 0 mm 1 m/S 674 mmHg 73%
    12:00 -1°C° 0 mm 1 m/S 674 mmHg 72%
    13:00 +1°C° 0 mm 1 m/S 674 mmHg 71%
    14:00 0°C° 0 mm 1 m/S 674 mmHg 76%
    15:00 -2°C° 0 mm 0 m/S 674 mmHg 80%
    16:00 -3°C° 0 mm 0 m/S 674 mmHg 85%
    17:00 -4°C° 0 mm 0 m/S 675 mmHg 84%
    18:00 -4°C° 0 mm 0 m/S 675 mmHg 84%
    19:00 -4°C° 0 mm 1 m/S 676 mmHg 83%
    20:00 -4°C° 0 mm 1 m/S 676 mmHg 82%
    21:00 -4°C° 0 mm 1 m/S 676 mmHg 82%
    22:00 -4°C° 0 mm 1 m/S 677 mmHg 81%
    23:00 -6°C° 0 mm 1 m/S 677 mmHg 81%

    15 Dezember, Samstag

    Zeit Temperatur Niederschläge Wind Luftdruck Luftfeuchtigkeit
    00:00 -6°C° 0 mm 1 m/S 677 mmHg 81%
    01:00 -6°C° 0 mm 1 m/S 677 mmHg 81%
    02:00 -6°C° 0 mm 1 m/S 677 mmHg 82%
    03:00 -7°C° 0 mm 1 m/S 677 mmHg 83%
    04:00 -7°C° 0 mm 1 m/S 677 mmHg 84%
    05:00 -7°C° 0 mm 1 m/S 677 mmHg 85%
    06:00 -7°C° 0 mm 1 m/S 677 mmHg 86%
    07:00 -7°C° 0 mm 1 m/S 677 mmHg 87%
    08:00 -6°C° 0 mm 1 m/S 678 mmHg 86%
    09:00 -4°C° 0 mm 1 m/S 678 mmHg 86%
    10:00 -2°C° 0 mm 1 m/S 679 mmHg 86%
    11:00 -1°C° 0 mm 1 m/S 679 mmHg 83%
    12:00 0°C° 0 mm 1 m/S 678 mmHg 81%
    13:00 +1°C° 0 mm 0 m/S 678 mmHg 79%
    14:00 -1°C° 0 mm 0 m/S 678 mmHg 82%
    15:00 -2°C° 0 mm 0 m/S 678 mmHg 86%
    16:00 -4°C° 0 mm 0 m/S 678 mmHg 89%
    17:00 -3°C° 0 mm 1 m/S 678 mmHg 85%
    18:00 -4°C° 0 mm 1 m/S 678 mmHg 81%
    19:00 -6°C° 0 mm 1 m/S 678 mmHg 77%
    20:00 -6°C° 0 mm 1 m/S 678 mmHg 74%
    21:00 -6°C° 0 mm 1 m/S 678 mmHg 70%
    22:00 -7°C° 0 mm 2 m/S 678 mmHg 66%
    23:00 -6°C° 0 mm 2 m/S 678 mmHg 64%
    Mehr zeigen